Orbital Elements at Epoch 2459200.5 (2020-Dec-17.0) TDB
Reference: JPL 11 (heliocentric ecliptic J2000)
Element | Value | Uncertainty (1-sigma) | Units |
e | .1583314172083827 | 4.6453e-08 | |
a | 2.398113886106624 | 1.1209e-08 | au |
q | 2.01841711589226 | 1.1127e-07 | au |
i | 1.558498776516232 | 5.5614e-06 | deg |
node | 148.0521239808691 | 0.00019195 | deg |
peri | 281.778593653015 | 0.00019296 | deg |
M | 234.2121490655563 | 2.1371e-05 | deg |
tp | 2459674.457422704892 (2022-Apr-04.95742270) | 8.2666e-05 | TDB |
period | 1356.447947128733 3.71 | 9.5104e-06 2.604e-08 | d yr |
n | .2653990525489986 | 1.8608e-09 | deg/d |
Q | 2.777810656320988 | 1.2984e-08 | au |
|
| | Orbit Determination Parameters
Additional Information
|